Home > Weather > Trois-Rivieres > Past weeks

Flag for Canada Past Weather in Trois-Rivieres, Quebec, Canada — Yesterday and Last 2 Weeks

Now
74 °F

Mild.


Feels Like: 77 °F
Forecast: 66 / 77 °F
Wind: 5 mph from East

Location: Trois Rivieres

Current Time: Jul 28, 2016 at 2:35:11 PM

Latest Report: Jul 28, 2016 at 2:00 PM


Visibility: N/A

Pressure: 29.86 "Hg

Humidity: 61%

Dew Point: 60 °F

Location of Trois-RivieresLocation

Past Weather in Trois-Rivieres — Graph

°F

Trois-Rivieres Temperature Yesterday

Maximum temperature yesterday: 82 °F (at 4:00 PM)
Minimum temperature yesterday: 64 °F (at 5:00 AM)
Average temperature yesterday: 74 °F

High & Low Weather Summary for the Past Weeks

 TemperatureHumidityPressure
High85 °F (Jul 22, 5:00 PM)100% (Jul 15, 7:00 PM)30.12 "Hg (Jul 15, 7:00 PM)
Low56 °F (Jul 19, 4:00 AM)37% (Jul 19, 4:00 PM)29.58 "Hg (Jul 22, 1:00 PM)
Average71 °F76%29.85 "Hg
* Reported Jul 13 1:00 PM — Jul 28 1:00 PM, Trois-Rivieres, Weather by CustomWeather, © 2016

Note: Actual official high and low records may vary slightly from our data, if they occured in-between our weather recording intervals... More about our weather records

Advertising

Trois-Rivieres Weather History for the Previous 24 Hours

Scroll right to see more
 ConditionsComfort  
Time TempWeatherWind HumidityBarometerVisibility
1:00 PM
Thu, Jul 28
75 °FMild.2 mph55%29.88 "HgN/A
12:00 PM74 °FMild.3 mph61%29.88 "HgN/A
11:00 AM72 °FMild.5 mph60%29.88 "HgN/A
8:00 AM69 °FMild.5 mph70%29.88 "HgN/A
7:00 AM68 °FMild.6 mph75%29.87 "HgN/A
6:00 AM68 °FMild.8 mph80%29.85 "HgN/A
5:00 AM68 °FMild.6 mph75%29.85 "HgN/A
4:00 AM69 °FMild.2 mph81%29.83 "HgN/A
3:00 AM69 °FMild.5 mph85%29.82 "HgN/A
2:00 AM70 °FMild.1 mph82%29.82 "HgN/A
1:00 AM71 °FMild.3 mph78%29.82 "HgN/A
12:00 AM74 °FMild.2 mph74%29.81 "HgN/A
11:00 PM
Wed, Jul 27
75 °FMild.3 mph76%29.80 "HgN/A
10:00 PM75 °FMild.3 mph85%29.80 "HgN/A
9:00 PM77 °FWarm.1 mph72%29.80 "HgN/A
8:00 PM79 °FWarm.6 mph69%29.79 "HgN/A
7:00 PM80 °FWarm.9 mph63%29.78 "HgN/A
6:00 PM81 °FWarm.7 mph62%29.78 "HgN/A
5:00 PM82 °FWarm.7 mph57%29.78 "HgN/A
4:00 PM82 °FWarm.15 mph57%29.78 "HgN/A
3:00 PM80 °FWarm.21 mph68%29.78 "HgN/A
2:00 PM78 °FWarm.20 mph72%29.80 "HgN/A
Weather by CustomWeather, © 2016

See weather overviewHow to use our weather pages